Regional Weather Roundup
Issued by NWS

Home | Current Version | Previous Version | Graphics & Text | Print | Product List | Glossary On
Versions: 1 2 3 4 5 6 7 8 9 10 11 12 13 14 15 16 17 18 19 20 21 22 23 24 25 26 27 28 29 30 31 32 33 34 35 36 37 38 39 40 41 42 43 44 45 46 47 48 49 50
000
ASUS43 KMPX 290701
RWRMN
WEATHER ROUNDUP FOR MINNESOTA
NATIONAL WEATHER SERVICE TWIN CITIES/CHANHASSEN MN
200 AM CDT SUN MAY 29 2016


NOTE: "FAIR" INDICATES FEW OR NO CLOUDS BELOW 12,000 FEET WITH NO
SIGNIFICANT WEATHER AND/OR OBSTRUCTIONS TO VISIBILITY. N/A MEANS
CURRENT SKY AND/OR WEATHER CONDITIONS ARE NOT AVAILABLE.

MNZ060>063-068>070-290800-
   Twin Cities Metro

CITY           SKY/WX    TMP DP  RH WIND       PRES   REMARKS
TWIN CITIES    CLOUDY    63  60  90 W5        29.84S
ST PAUL        CLOUDY    62  60  93 W5        29.84R
CRYSTAL        CLOUDY    63  59  87 W3        29.82S
BLAINE         CLOUDY    64  63  94 W3        29.83S
EDEN PRAIRIE   CLOUDY    62  59  90 W3        29.84R
SOUTH ST PAUL  CLOUDY    62  61  95 W3        29.84S FOG
LAKE ELMO      CLOUDY    61  61 100 W5        29.84S
$$
MNZ001>005-007-008-013>017-022>024-027-028-290800-
   Northwest Minnesota

CITY           SKY/WX    TMP DP  RH WIND       PRES   REMARKS
BEMIDJI        DRIZZLE   56  56  99 NW6       29.83S
HALLOCK        CLOUDY    59  57  94 NE5       29.87S
ROSEAU         LGT RAIN  55  52  88 NW7       29.85F
WARROAD        DRIZZLE   55  52  88 NW5       29.85S
THIEF RVR FALL CLOUDY    55  54  94 N6        29.87S
CROOKSTON      CLOUDY    57  57 100 CALM      29.87S
FOSSTON        LGT RAIN  55  54  94 N6        29.86R
DETROIT LAKES  DRIZZLE   59  57  94 NW9       29.87R
MOORHEAD       CLOUDY    61  59  94 NW5       29.87S
PARK RAPIDS    MOCLDY    59  56  89 NW7       29.83S
MAHNOMEN       DRIZZLE   56  56  97 N6        29.85S
$$
MNZ006-009>011-018-025>026-290800-
   North Central Minnesota

CITY           SKY/WX    TMP DP  RH WIND       PRES   REMARKS
BAUDETTE       LGT RAIN  55  53  93 NW5       29.83R
FLAG ISLAND    DRIZZLE   55  54  94 NE10      29.83F
INTL FALLS     CLOUDY    57  56  96 N6        29.80S FOG
WASKISH        LGT RAIN  55  55 100 NW3       29.82F
BIG FORK       FOG       59  57  94 CALM      29.81S VSB 3/4
LONGVILLE      RAIN      59  57  94 CALM      29.82S
GRAND RAPIDS   CLOUDY    60  58  92 CALM      29.82F
CRANE LAKE     LGT RAIN  57  57 100 CALM      29.81F
ORR            DRZL/FOG  59  55  88 CALM      29.77F VSB 1/2
COOK           DRIZZLE   57  57 100 CALM      29.81S
WALKER         CLOUDY    57  57  98 CALM      29.82S
$$
MNZ012-019>021-037-290800-
   Northeast Minnesota

CITY           SKY/WX    TMP DP  RH WIND       PRES   REMARKS
DULUTH         FOG       55  54  96 W5        29.80F VSB 1/2
ELY            CLOUDY    59  57  94 CALM      29.80S FOG
HIBBING        RAIN      57  57 100 CALM      29.80F FOG
EVELETH        RAIN      57  57 100 CALM      29.82S
DULUTH HARBOR  FOG       52  52 100 CALM      29.82S VSB 3/4
TWO HARBORS    DRZL/FOG  55  50  82 CALM      29.79R VSB 1/4
SILVER BAY     LGT RAIN  55  54  94 CALM      29.78F VSB 3/4
GRAND MARAIS     N/A     46  45  96 CALM      29.79S
G MARAIS ARPRT FOG       57  55  94 CALM      29.81F VSB 1/2
$$
MNZ029>031-032-039>041-046>048-054>057-064-290800-
   West Central Minnesota

CITY           SKY/WX    TMP DP  RH WIND       PRES   REMARKS
FERGUS FALLS   CLOUDY    59  59 100 NW8       29.84S
WHEATON        MOCLDY    63  61  94 W5        29.90R
MORRIS         PTCLDY    59  57  94 W5        29.87R
ALEXANDRIA     LGT RAIN  59  57  93 W10       29.87R
ELBOW LAKE     MOCLDY    58  58  99 NW7       29.87S
WADENA         CLOUDY    57  57 100 NW3       29.84S FOG
GLENWOOD       LGT RAIN  59  57  94 W8        29.87S
APPLETON       CLOUDY    59  55  88 W3        29.88S
ORTONVILLE     CLOUDY    61  55  82 W3        29.89R
MADISON        CLOUDY    57  55  94 W5        29.89S
WILLMAR        FAIR      63  61  94 W7        29.88S
$$
MNZ033>034-036-042>043-049>051-058-059-290800-
   Central Minnesota

CITY           SKY/WX    TMP DP  RH WIND       PRES   REMARKS
ST CLOUD       CLOUDY    60  58  92 W3        29.83S
SAUK CENTRE    DRIZZLE   59  58  96 W5        29.86R
PAYNESVILLE    CLOUDY    60  60 100 W5        29.86S
AITKIN         CLOUDY    61  55  82 CALM      29.81S
PINE RIVER     DRIZZLE   57  57 100 CALM      29.86S
BRAINERD       CLOUDY    59  58  96 W6        29.83S
STAPLES        CLOUDY    57  57 100 W3        29.84R
LONG PRAIRIE   LGT RAIN  59  55  88 SW3       29.85S
LITTLE FALLS   CLOUDY    59  55  88 W3        29.84S
LITCHFIELD     CLOUDY    63  61  94 W3        29.86S
BUFFALO        CLOUDY    62  58  89 CALM      29.85S
MAPLE LAKE     CLOUDY    62  60  92 CALM      29.85S
HUTCHINSON     CLOUDY    62  61  95 W8        29.87S
$$
MNZ037-044-045-052-053-290800-
   East Central Minnesota

CITY           SKY/WX    TMP DP  RH WIND       PRES   REMARKS
PRINCETON        N/A     63  61  94 SW3       29.84S
MORA           CLOUDY    55  55 100 CALM      29.84S
CAMBRIDGE      CLOUDY    63  55  77 CALM      29.81S
RUSH CITY      CLOUDY    60  58  95 CALM      29.82S
MOOSE LAKE     LGT RAIN  55  54  94 CALM      29.80S
HINCKLEY       CLOUDY    61  61 100 CALM      29.81F
CLOQUET        RAIN      55  54  94 CALM      29.81S
MCGREGOR       CLOUDY    59  57  94 CALM      29.82S
$$
MNZ071>073-080-081-089-090-097-098-290800-
   Southwest Minnesota

CITY           SKY/WX    TMP DP  RH WIND       PRES   REMARKS
MONTEVIDEO     MOCLDY    61  59  94 NW3       29.90S
GRANITE FALLS  PTCLDY    61  59  92 W8        29.90S
CANBY          CLOUDY    62  59  91 W7        29.91S
MARSHALL       CLOUDY    60  58  92 W10       29.90S
REDWOOD FALLS  CLOUDY    62  58  86 W9        29.88R
OLIVIA         CLOUDY    61  57  88 W7        29.87S
PIPESTONE      CLOUDY    59  57  94 W6        29.94S FOG
WINDOM         CLEAR     59  55  88 CALM      29.91S
WORTHINGTON    PTCLDY    59  57  93 W12       29.94R
JACKSON        CLEAR     59  55  88 W8        29.92R
TRACY          PTCLDY    61  59  92 W8        29.91R
SLAYTON        CLOUDY    59  59 100 W10       29.94R
$$
MNZ065>067-074>077-082>085-091>093-290800-
   South Central Minnesota

CITY           SKY/WX    TMP DP  RH WIND       PRES   REMARKS
MANKATO        CLOUDY    63  57  82 W6        29.87S
NEW ULM        CLOUDY    61  61 100 W9G17     29.88R
ST JAMES       CLEAR     55  54  94 W9        29.90S
FAIRMONT       CLOUDY    61  54  77 W9        29.90R
GLENCOE        CLOUDY    63  62  97 W3        29.85S
FARIBAULT      MOCLDY    61  61 100 W5        29.86R
OWATONNA       CLOUDY    61  59  94 W5        29.87R
WASECA         MOCLDY    59  57  94 W7        29.88S
ALBERT LEA     CLOUDY    63  61  94 W3        29.87S
$$
MNZ078>079-086>088-094>096-290800-
   Southeast Minnesota

CITY           SKY/WX    TMP DP  RH WIND       PRES   REMARKS
ROCHESTER      CLOUDY    62  61  96 SW6       29.86R
RED WING       CLOUDY    63  63 100 NW5       29.82S FOG
STANTON        CLOUDY    61  59  92 W3        29.84R
DODGE CENTER   CLOUDY    61  61 100 NW8       29.86R FOG
WINONA         CLOUDY    61  61 100 CALM      29.83S
AUSTIN         LGT RAIN  61  59  94 W3        29.86R
PRESTON        CLOUDY    61  58  89 SW8       29.86S
$$
ABBREVIATIONS USED IN REMARKS
   TC - TEMPERATURES IN CELSIUS
  WCI - WIND CHILL INDEX
   HX - HEAT INDEX
  VSB - VISIBILITY
$$




USA.gov is the U.S. government's official web portal to all federal, state and local government web resources and services.